Flag for U.S.A. Weather past 2 weeks in San Jose, California, U.S.A.

41 °F

Passing clouds.

Feels Like: 41 °F
Forecast: 33 / 53 °F
Wind: No wind

Location: San Jose International Airport

Current Time: Nov 26, 2015 at 11:07:30 PM

Latest Report: Nov 26, 2015 at 9:53 PM

Visibility: 10 mi

Pressure: 30.09 "Hg

Humidity: 67%

Dew point: 31 °F

Location of San JoseLocation

Historic Weather in San Jose — Graph


San Jose temperature yesterday

Maximum temperature yesterday: 53 °F (at 1:53 PM)
Minimum temperature yesterday: 41 °F (at 6:53 AM)
Average temperature yesterday: 46 °F

Past Weeks' High & Low Weather Summary

High71 °F (Nov 20, 12:53 PM)100% (Nov 15, 7:53 AM)30.36 "Hg (Nov 15, 7:53 AM)
Low37 °F (Nov 26, 2:53 AM)33% (Nov 16, 3:53 PM)29.79 "Hg (Nov 15, 3:53 AM)
Average53 °F73%30.07 "Hg
* Reported Nov 11 9:53 PM — Nov 26 9:53 PM, San Jose, Weather by CustomWeather, © 2015

Note: Actual official high and low records may vary slightly from our data, if they occured in-between our weather recording intervals... More about our weather records


San Jose weather history for previous 24 hours

Time TempWeatherWind HumidityBarometerVisibility
9:53 PM
Thu, Nov 26
41 °FPassing clouds.No wind67%30.09 "Hg10 mi
8:53 PM41 °FPassing clouds.No wind67%30.09 "Hg10 mi
7:53 PM43 °FPassing clouds.No wind62%30.08 "Hg10 mi
6:53 PM46 °FPassing clouds.No wind48%30.08 "Hg10 mi
5:53 PM49 °FPassing clouds.6 mph41%30.07 "Hg10 mi
4:53 PM51 °FPassing clouds.7 mph38%30.07 "Hg10 mi
3:53 PM52 °FPassing clouds.12 mph38%30.07 "Hg10 mi
2:53 PM53 °FPassing clouds.16 mph37%30.05 "Hg10 mi
1:53 PM53 °FPassing clouds.15 mph37%30.06 "Hg10 mi
12:54 PM52 °FPassing clouds.8 mph40%30.07 "Hg10 mi
11:53 AM50 °FPassing clouds.3 mph43%30.11 "Hg10 mi
10:53 AM50 °FPassing clouds.9 mph44%30.12 "Hg10 mi
9:53 AM48 °FPassing clouds.6 mph43%30.12 "Hg10 mi
8:53 AM46 °FPassing clouds.9 mph46%30.11 "Hg10 mi
7:53 AM43 °FPassing clouds.5 mph58%30.11 "Hg10 mi
6:53 AM38 °FPassing clouds.No wind83%30.10 "Hg10 mi
5:53 AM37 °FClear.No wind86%30.07 "Hg10 mi
4:53 AM37 °FClear.No wind89%30.06 "HgN/A
3:53 AM38 °FClear.No wind86%30.05 "HgN/A
2:53 AM37 °FClear.No wind89%30.05 "HgN/A
1:53 AM39 °FClear.No wind82%30.05 "HgN/A
12:53 AM39 °FClear.3 mph89%30.03 "HgN/A
11:53 PM
Wed, Nov 25
41 °FClear.No wind82%30.03 "Hg10 mi
Weather by CustomWeather, © 2015

See weather overviewHow to use our weather pages